Regional Weather Roundup
Issued by NWS Wakefield, VA

Home | Current Version | Previous Version | Text Only | Print | Product List | Glossary Off
Versions: 1 2 3 4 5 6 7 8 9 10 11 12 13 14 15 16 17 18 19 20 21 22 23 24 25 26 27 28 29 30 31 32 33 34 35 36 37 38 39 40 41 42 43 44 45 46 47 48 49 50

229
ASUS41 KAKQ 252215
RWRAKQ

REGIONAL WEATHER ROUNDUP
NATIONAL WEATHER SERVICE WAKEFIELD VA
500 PM EST SAT FEB 25 2017

Note: "fair" indicates few or no clouds below 12,000 feet with no
significant weather and/or obstructions to visibility. * = Denotes
station may not report precipitation (e.g., rain,snow,etc.),
thunder or fog.

VAZ042-051-052>054-056-252300-
NORTHERN VIRGINIA

CITY           SKY/WX    TMP DP  RH WIND       PRES   REMARKS
WASH NATIONAL  CLOUDY    57  45  64 NW18G25   29.59R
DULLES         PTSUNNY   54  42  64 NW20G28   29.59R
FORT BELVOIR   CLOUDY    58  46  65 NW12G18   29.58R
QUANTICO       CLOUDY    61  51  70 N10       29.57R
FREDERICKSBRG* CLOUDY    65  49  54 W13G18    29.55R
STAFFORD*      CLOUDY    62  47  57 W8        29.59R
WARRENTON      CLOUDY    62  38  41 W17G26    29.57R
CULPEPER*      CLOUDY    62  41  46 NW14G21   29.58R
MANASSAS*      CLOUDY    58  43  57 NW15G23   29.59R
LEESBURG*      CLOUDY    54  43  66 MISG      29.60R
WINCHESTER     MOSUNNY   52  34  50 W16G25    29.60R
FRONT ROYAL*   NOT AVBL
LURAY*         NOT AVBL
$$

VAZ048-049-060>072-079>083-252300-
CENTRAL AND SOUTH CENTRAL VIRGINIA

CITY           SKY/WX    TMP DP  RH WIND       PRES   REMARKS
RICHMOND       CLOUDY    65  60  84 W12       29.52R
CHESTERFIELD*  MOCLDY    63  46  55 NW10      29.55R
PETERSBURG*    TSTM      63  58  83 W7        29.55R
HANOVER        CLOUDY    68  47  46 W15G25    29.54R
TAPPAHANNOCK*  CLOUDY    63  59  87 NW5       29.52R
QUINTON*       NOT AVBL
CHARLOTTSVILLE MOSUNNY   61  37  41 NW14G28   29.59R
GORDONSVILLE*  NOT AVBL
ORANGE*        PTSUNNY   59  37  44 SW16G25   29.59R
LOUISA*        PTSUNNY   64  41  42 W24G32    29.56R
BUMPASS*       MOCLDY    64  41  43 W10G30    29.55R
FARMVILLE*     PTSUNNY   65  40  38 W6        29.58R
CREWE*         FAIR      64  43  46 W13G23    29.56R
FORT PICKETT*  NOT AVBL
CHASE CITY*    NOT AVBL
CLARKSVILLE*   FAIR      64  52  63 NW10      29.57R
SOUTH HILL*    CLOUDY    62  57  83 NW8G17    29.62R
LAWRENCEVILLE* FAIR      62  58  85 NW9G18    29.55R
EMPORIA*       PTSUNNY   70  54  56 W17G23    29.55R
$$

VAZ088>098-252300-
SOUTHEAST VIRGINIA

CITY           SKY/WX    TMP DP  RH WIND       PRES   REMARKS
NORFOLK        PTCLDY    77  55  46 S23G35    29.48F
VIRGINIA BEACH PTCLDY    75  55  49 S10G29    29.50F
NORFOLK NAVAL  MOCLDY    78  54  43 S16G24    29.50F
WEST POINT*    CLOUDY    60  52  76 SW10G23   29.51R
SALUDA*        MOCLDY    69  62  79 W10       29.50R
NEWPORT NEWS   PTSUNNY   75  55  49 SW15G22   29.49F
LANGLEY AFB    PTCLDY    76  57  51 SW13G23   29.48F
FORT EUSTIS    MOSUNNY   74  55  51 S10G18    29.46F
WILLIAMSBURG*  PTSUNNY   77  57  50 SW7G17    29.49S
HR EXEC AP*    FAIR      79  55  44 S18G24    29.48F
FRANKLIN*      SUNNY     77  55  45 S16G24    29.50F THUNDER
US460-WAKEFLD  PTSUNNY   76  55  48 S12G24    29.48F
$$

VAZ020-022-025-037-045-252300-
WEST CENTRAL AND SOUTHWEST VIRGINIA

CITY           SKY/WX    TMP DP  RH WIND       PRES   REMARKS
STAUNTON*      MOSUNNY   55  34  45 W16G22    29.66S
WAYNESBORO*    PTCLDY    54  33  44 W8G26     29.64R
HOT SPRINGS VA PTSUNNY   41  25  52 W18G35    29.66S
LYNCHBURG      MOSUNNY   60  35  39 NW17G29   29.64R
DANVILLE       MOSUNNY   65  40  39 NW12G23   29.60R
SOUTH BOSTON*  FAIR      65  38  36 NW13G18   29.59R
MARTINSVILLE   MOSUNNY   62  33  33 NW8       29.68R
ROANOKE        MOSUNNY   57  33  40 W23G38    29.68R
BLACKSBURG     PTSUNNY   53  33  47 W13G21    29.74R
DUBLIN*        MOSUNNY   53  31  44 W17G24    29.74R
MARION*        SUNNY     50  18  28 W21G40    29.76R
HILLSVILLE*    MOSUNNY   49  28  44 W16G25    29.72R
RICHLANDS*     FAIR      45  26  48 NW7G16    29.79R
WISE*          MOSUNNY   41  23  48 W10G22    29.86R
ABINGDON*      MOSUNNY   51  23  33 W16G25    29.81R
$$

MDZ021>025-VAZ099-100-252300-
SOUTHERN MARYLAND AND THE DELMARVA PENINSULA

CITY           SKY/WX    TMP DP  RH WIND       PRES   REMARKS
PATUXENT RIVER LGT RAIN  60  57  89 NW10      29.52R
BAY BRIDGE APT LGT RAIN  54  48  82 W8        29.58R
LEONARDTOWN    CLOUDY    59  55  88 W6        29.55R
DOVER          TSTM      66  64  94 SW24G36   29.50R FOG
GEORGETOWN     PTCLDY    68  57  68 S12       29.48F
EASTON         LGT RAIN  55  50  82 NW14G21   29.60R
CAMBRIDGE      CLOUDY    66  59  77 W16G24    29.53R
SALISBURY      PTCLDY    67  58  72 S15G23    29.49S
OCEAN CITY     PTCLDY    53  51  93 VRB6      29.52F
WALLOPS ISLAND CLEAR     57  55  93 S17G29    29.52F
ACCOMACK*      PTCLDY    65  57  75 S16G31    29.50F
$$

NCZ012>017-030>032-252300-
NORTH CENTRAL AND EASTERN NORTH CAROLINA

CITY           SKY/WX    TMP DP  RH WIND       PRES   REMARKS
ROANOKE RAPIDS FAIR      77  54  44 SW17      29.53R
RALEIGH        PTSUNNY   76  48  37 SW20G29   29.56S
ELIZABETH CITY SUNNY     74  58  57 S15G23    29.55F
AHOSKIE*         N/A     76  55  48 S8        29.53R
EDENTON*       MOSUNNY   75  59  55 S17       29.56F
CURRITUCK*     CLEAR     74  57  55 S10G21    29.54F
KILL DEVIL HLS NOT AVBL
MANTEO         CLEAR     65  60  82 S15       29.61S
CAPE HATTERAS  CLEAR     71  62  73 SW18G31   29.65F HAZE
TARBORO*       NOT AVBL
GOLDSBORO      SUNNY     79  51  37 SW16G33   29.57R
WASHINGTON     MOSUNNY   77  59  53 SW10G18   29.57F
GREENVILLE     MOSUNNY   81  55  41 SW18G28   29.60S
NEW BERN       PTSUNNY   73  63  70 S12       29.62F
WILMINGTON     SUNNY     72  58  61 SW18G28   29.66S
$$

VAZ048-252300-
ELSEWHERE

CITY           SKY/WX    TMP DP  RH WIND       PRES   REMARKS
HARRISBURG PA  CLOUDY    50  43  77 NW17      29.56R
BALTIMORE      MOCLDY    55  45  68 NW21G30   29.54R
ANNAPOLIS      LGT RAIN  56  48  74 W10G20    29.55R
ANDREWS AFB    CLOUDY    55  45  67 NW21G29   29.57R
PHILADELPHIA   TSTM      66  54  65 S13G23    29.51R
HENDERSON NC   LGT RAIN  62  53  72 NW6       29.58R
GREENSBORO     MOSUNNY   67  36  31 NW17G32   29.62R
ROCKY MOUNT    MOSUNNY   78  53  41 SW20G28   29.56R
$$

VAZ100-252300-
MARINE

STATION/POSITION TIME  TEMP    WIND        PRES    WAVE   SWELL
                       AIR SEA DIR/SP/G            HT/PER HT/PER
                 (UTC) (F)     (DEG/KT/KT) (MB)    (FT/S) (FT/S)
CAPE MAY NJ      2148   53 47  150/ 15/ 23  998.5F
LEWES DE         2148   60 44  160/ 10/ 14  998.4F
OCEAN-CITY-INLET 2148   50 48  220/  8/ 10  999.8F
WACHAPREAGUE VA  2148   60 59  190/ 16/ 19  999.1F
THOMAS POINT MD  2200   54 45  280/ 15/ 21   N/A
GOOSES REEF MD   2200   52 44  320/ 14/ 19 1001.8    2/ 3
COVE POINT MD    2148   60     250/  9/ 14 1001.2R
SOLOMONS ISLAND  2148   58 47  290/  5/ 11   N/A
BISHOPS HEAD MD  2148   56 53  180/ 11/ 12  999.3R
PINEY POINT MD   2148          360/  9/ 11   N/A
POTOMAC MD       2200   58 45  310/ 16/ 23  998.3    2/ 3
CAMBRIDGE MD     2148   66 46  220/ 11/ 17  998.6R
LEWISETTA VA     2148   65 54  320/ 13/ 19  999.2R
RAPPAHANNOCK LGT 2148          150/ 18/ 20  999.1F
YORK RVR RNG VA  2148   67     200/ 17/ 20  997.7F
YORKTOWN VA      2148   75 50  200/ 12/ 18  997.9F
JAMESTOWN VA     2200   73 54  200/ 10/ 16   N/A     1
DOMINION TERM VA 2148   69     210/ 15/ 17  998.6F
KIPTOPEKE VA     2148      53  170/ 17/ 21   N/A
CHES BAY BRIDGE  2148   74 50  200/ 19/ 24  998.6F
CAPE HENRY VA    2148   74     180/ 13/ 21   N/A
WILLOUBY STN VA  2148   75     200/ 17/ 22  999.4F
S CRANEY ISL VA  2148   75     200/ 17/ 23  998.7F
CAPE HENRY BUOY  2142      50                N/A     5/11   3/11
OFFSHORE WE BUOY 2151      51                N/A     6/11   3/11
64NM E OF VA BCH 2150   60 55  180/ 17/ 19 1001.4F   5/11   5/11
DUCK PIER NC     2148   70 50  180/ 18/ 22 1000.8F
44100 DUCK FRF   2135      52                N/A     6/11   3/11
44056 DUCK FRF   2130      51                N/A     4/12   2/12
OREGON INLET NC  2148          180/ 19/ 22 1002.8F
HATTERAS NC      2148   69 64  200/ 12/ 17 1003.8F
DIAMOND SHLS NC  2150   73 76  220/ 23/ 27 1004.3F   7/11   5/11
CAPE LOOKOUT NC  2100   71     200/ 16/ 21 1004.5F
$$




USA.gov is the U.S. government's official web portal to all federal, state and local government web resources and services.